Time,TemperatureF,DewpointF,PressureIn,WindDirection,WindDirectionDegrees,WindSpeedMPH,WindSpeedGustMPH,Humidity,HourlyPrecipIn,Conditions,Clouds,dailyrainin,SoftwareType,DateUTC
2013-06-26 00:00:00,69.9,70.0,29.75,ENE,72,0.0,0.0,99,0.00,,,0.00,weatherlink.com 1.10,2013-06-26 04:00:00,
2013-06-26 00:15:00,69.7,69.0,29.75,ENE,72,0.0,0.0,99,0.00,,,0.00,weatherlink.com 1.10,2013-06-26 04:15:00,
2013-06-26 00:30:00,69.6,69.0,29.74,ENE,74,0.0,0.0,99,0.00,,,0.00,weatherlink.com 1.10,2013-06-26 04:30:00,
2013-06-26 00:45:00,69.5,69.0,29.74,ENE,72,0.0,0.0,99,0.00,,,0.00,weatherlink.com 1.10,2013-06-26 04:45:00,
2013-06-26 01:00:00,69.5,70.0,29.73,ENE,72,0.0,0.0,100,0.00,,,0.00,weatherlink.com 1.10,2013-06-26 05:00:00,
2013-06-26 01:15:00,69.4,69.0,29.72,WNW,287,0.0,0.0,100,0.00,,,0.00,weatherlink.com 1.10,2013-06-26 05:15:00,
2013-06-26 01:30:00,69.2,69.0,29.72,WNW,287,0.0,0.0,100,0.00,,,0.00,weatherlink.com 1.10,2013-06-26 05:30:00,
2013-06-26 01:45:00,68.9,69.0,29.72,WNW,287,0.0,0.0,100,0.00,,,0.00,weatherlink.com 1.10,2013-06-26 05:45:00,
2013-06-26 02:00:00,68.7,69.0,29.72,WNW,287,0.0,0.0,100,0.00,,,0.00,weatherlink.com 1.10,2013-06-26 06:00:00,
2013-06-26 02:15:00,68.5,69.0,29.72,WNW,286,0.0,0.0,100,0.00,,,0.00,weatherlink.com 1.10,2013-06-26 06:15:00,
2013-06-26 02:30:00,68.2,68.0,29.72,WNW,287,0.0,0.0,100,0.00,,,0.00,weatherlink.com 1.10,2013-06-26 06:30:00,
2013-06-26 02:45:00,67.9,68.0,29.72,WNW,287,0.0,0.0,100,0.00,,,0.00,weatherlink.com 1.10,2013-06-26 06:45:00,
2013-06-26 03:00:00,68.0,68.0,29.72,WNW,287,0.0,0.0,100,0.00,,,0.00,weatherlink.com 1.10,2013-06-26 07:00:00,
2013-06-26 03:15:00,68.0,68.0,29.72,WNW,287,0.0,0.0,100,0.00,,,0.00,weatherlink.com 1.10,2013-06-26 07:15:00,
2013-06-26 03:30:00,68.2,68.0,29.72,WNW,287,0.0,0.0,100,0.00,,,0.00,weatherlink.com 1.10,2013-06-26 07:30:00,
2013-06-26 03:45:00,68.3,68.0,29.72,WNW,287,0.0,0.0,100,0.00,,,0.00,weatherlink.com 1.10,2013-06-26 07:45:00,
2013-06-26 04:00:00,68.4,68.0,29.72,WNW,287,0.0,0.0,100,0.00,,,0.00,weatherlink.com 1.10,2013-06-26 08:00:00,
2013-06-26 04:15:00,68.5,69.0,29.72,WNW,286,0.0,0.0,100,0.00,,,0.00,weatherlink.com 1.10,2013-06-26 08:15:00,
2013-06-26 04:30:00,68.7,69.0,29.72,WNW,287,0.0,0.0,100,0.00,,,0.00,weatherlink.com 1.10,2013-06-26 08:30:00,
2013-06-26 04:45:00,68.9,69.0,29.73,WNW,287,0.0,0.0,100,0.00,,,0.00,weatherlink.com 1.10,2013-06-26 08:45:00,
2013-06-26 05:00:00,68.9,69.0,29.73,WNW,286,0.0,0.0,100,0.00,,,0.00,weatherlink.com 1.10,2013-06-26 09:00:00,
2013-06-26 05:15:00,68.9,69.0,29.73,WNW,287,0.0,0.0,100,0.00,,,0.00,weatherlink.com 1.10,2013-06-26 09:15:00,
2013-06-26 05:30:00,68.9,69.0,29.73,WNW,287,0.0,0.0,100,0.00,,,0.00,weatherlink.com 1.10,2013-06-26 09:30:00,
2013-06-26 05:45:00,68.8,69.0,29.73,WNW,286,0.0,0.0,100,0.00,,,0.00,weatherlink.com 1.10,2013-06-26 09:45:00,
2013-06-26 06:00:00,68.8,69.0,29.73,WNW,287,0.0,0.0,100,0.00,,,0.00,weatherlink.com 1.10,2013-06-26 10:00:00,
2013-06-26 06:15:00,68.8,69.0,29.73,WNW,286,0.0,0.0,100,0.00,,,0.00,weatherlink.com 1.10,2013-06-26 10:15:00,
2013-06-26 06:30:00,68.9,69.0,29.73,NE,51,0.0,1.0,100,0.00,,,0.00,weatherlink.com 1.10,2013-06-26 10:30:00,
2013-06-26 06:45:00,69.0,69.0,29.74,NE,47,1.0,1.0,100,0.00,,,0.00,weatherlink.com 1.10,2013-06-26 10:45:00,
2013-06-26 07:00:00,69.2,69.0,29.74,WSW,253,0.0,0.0,100,0.00,,,0.00,weatherlink.com 1.10,2013-06-26 11:00:00,
2013-06-26 07:16:00,69.2,69.0,29.75,NNE,16,0.0,0.0,99,0.00,,,0.00,weatherlink.com 1.10,2013-06-26 11:16:00,
2013-06-26 07:30:00,69.0,69.0,29.75,North,1,0.0,1.0,99,0.01,,,0.01,weatherlink.com 1.10,2013-06-26 11:30:00,
2013-06-26 07:45:00,69.2,69.0,29.75,North,11,0.0,0.0,98,0.01,,,0.01,weatherlink.com 1.10,2013-06-26 11:45:00,
2013-06-26 08:00:00,69.3,69.0,29.75,NNE,12,0.0,0.0,98,0.01,,,0.01,weatherlink.com 1.10,2013-06-26 12:00:00,
2013-06-26 08:15:00,69.3,69.0,29.76,NE,47,0.0,2.0,98,0.01,,,0.01,weatherlink.com 1.10,2013-06-26 12:15:00,
2013-06-26 08:30:00,69.3,69.0,29.77,ENE,75,0.0,1.0,97,0.07,,,0.08,weatherlink.com 1.10,2013-06-26 12:30:00,
2013-06-26 08:45:00,69.3,69.0,29.76,West,273,0.0,1.0,98,0.08,,,0.09,weatherlink.com 1.10,2013-06-26 12:45:00,
2013-06-26 09:00:00,69.5,69.0,29.76,NE,41,0.0,1.0,98,0.10,,,0.11,weatherlink.com 1.10,2013-06-26 13:00:00,
2013-06-26 09:15:00,69.9,69.0,29.76,West,264,0.0,1.0,98,0.10,,,0.11,weatherlink.com 1.10,2013-06-26 13:15:00,
2013-06-26 09:30:00,69.9,69.0,29.76,SW,236,0.0,0.0,98,0.03,,,0.11,weatherlink.com 1.10,2013-06-26 13:30:00,
2013-06-26 09:45:00,70.0,69.0,29.76,West,259,0.0,0.0,98,0.02,,,0.11,weatherlink.com 1.10,2013-06-26 13:45:00,
2013-06-26 10:00:00,70.3,70.0,29.76,North,349,0.0,0.0,98,0.00,,,0.11,weatherlink.com 1.10,2013-06-26 14:00:00,
2013-06-26 10:15:00,70.8,70.0,29.77,WSW,257,0.0,0.0,98,0.01,,,0.12,weatherlink.com 1.10,2013-06-26 14:15:00,
2013-06-26 10:30:00,71.4,71.0,29.77,NNE,29,0.0,1.0,97,0.01,,,0.12,weatherlink.com 1.10,2013-06-26 14:30:00,
2013-06-26 10:45:00,71.3,70.0,29.77,WNW,286,0.0,3.0,96,0.01,,,0.12,weatherlink.com 1.10,2013-06-26 14:45:00,
2013-06-26 11:00:00,71.8,71.0,29.77,NE,42,0.0,1.0,96,0.01,,,0.12,weatherlink.com 1.10,2013-06-26 15:00:00,
2013-06-26 11:15:00,72.5,71.0,29.76,NNE,26,0.0,2.0,94,0.00,,,0.12,weatherlink.com 1.10,2013-06-26 15:15:00,
2013-06-26 11:30:00,73.3,72.0,29.76,WNW,302,0.0,2.0,94,0.00,,,0.12,weatherlink.com 1.10,2013-06-26 15:30:00,
2013-06-26 11:46:00,74.2,72.0,29.77,NNE,33,0.0,2.0,91,0.00,,,0.12,weatherlink.com 1.10,2013-06-26 15:46:00,
2013-06-26 12:01:00,74.4,71.0,29.76,NNW,340,0.0,3.0,90,0.00,,,0.12,weatherlink.com 1.10,2013-06-26 16:01:00,
2013-06-26 12:16:00,75.1,72.0,29.76,NNE,23,0.0,5.0,90,0.00,,,0.12,weatherlink.com 1.10,2013-06-26 16:16:00,
2013-06-26 12:31:00,76.1,72.0,29.76,NNE,30,0.0,2.0,86,0.00,,,0.12,weatherlink.com 1.10,2013-06-26 16:31:00,
2013-06-26 12:46:00,77.0,72.0,29.76,NNE,25,0.0,3.0,85,0.00,,,0.12,weatherlink.com 1.10,2013-06-26 16:46:00,
2013-06-26 13:01:00,77.9,72.0,29.77,ENE,69,1.0,4.0,81,0.00,,,0.12,weatherlink.com 1.10,2013-06-26 17:01:00,
2013-06-26 13:16:00,77.9,72.0,29.76,NE,46,0.0,3.0,81,0.00,,,0.12,weatherlink.com 1.10,2013-06-26 17:16:00,
2013-06-26 13:31:00,77.0,70.0,29.77,NNE,25,0.0,4.0,80,0.00,,,0.12,weatherlink.com 1.10,2013-06-26 17:31:00,
2013-06-26 13:46:00,76.7,71.0,29.77,NNW,345,0.0,3.0,82,0.00,,,0.12,weatherlink.com 1.10,2013-06-26 17:46:00,
2013-06-26 14:01:00,76.5,71.0,29.76,NNE,33,0.0,1.0,83,0.00,,,0.12,weatherlink.com 1.10,2013-06-26 18:01:00,
2013-06-26 14:16:00,76.6,71.0,29.76,East,89,0.0,0.0,83,0.00,,,0.12,weatherlink.com 1.10,2013-06-26 18:16:00,
2013-06-26 14:31:00,78.2,73.0,29.75,NE,54,1.0,1.0,83,0.00,,,0.12,weatherlink.com 1.10,2013-06-26 18:31:00,
2013-06-26 14:46:00,79.7,72.0,29.75,NNE,18,0.0,3.0,76,0.00,,,0.12,weatherlink.com 1.10,2013-06-26 18:46:00,
2013-06-26 15:01:00,80.1,72.0,29.76,NNW,333,0.0,2.0,77,0.00,,,0.12,weatherlink.com 1.10,2013-06-26 19:01:00,
2013-06-26 15:16:00,79.9,71.0,29.75,NNE,14,0.0,4.0,74,0.00,,,0.12,weatherlink.com 1.10,2013-06-26 19:16:00,
2013-06-26 15:31:00,80.0,71.0,29.75,NNW,336,0.0,3.0,75,0.00,,,0.12,weatherlink.com 1.10,2013-06-26 19:31:00,
2013-06-26 15:46:00,81.0,72.0,29.74,West,260,0.0,1.0,75,0.00,,,0.12,weatherlink.com 1.10,2013-06-26 19:46:00,
2013-06-26 16:01:00,82.5,73.0,29.74,NNW,345,0.0,2.0,72,0.00,,,0.12,weatherlink.com 1.10,2013-06-26 20:01:00,
2013-06-26 16:16:00,82.3,72.0,29.74,NNE,30,0.0,4.0,70,0.00,,,0.12,weatherlink.com 1.10,2013-06-26 20:16:00,
2013-06-26 16:31:00,83.0,72.0,29.73,SW,229,0.0,2.0,70,0.00,,,0.12,weatherlink.com 1.10,2013-06-26 20:31:00,
2013-06-26 16:46:00,83.6,73.0,29.73,WSW,253,0.0,1.0,71,0.00,,,0.12,weatherlink.com 1.10,2013-06-26 20:46:00,
2013-06-26 17:01:00,84.1,74.0,29.73,West,259,0.0,1.0,71,0.00,,,0.12,weatherlink.com 1.10,2013-06-26 21:01:00,
2013-06-26 17:16:00,82.8,72.0,29.73,NW,307,0.0,1.0,70,0.00,,,0.12,weatherlink.com 1.10,2013-06-26 21:16:00,
2013-06-26 17:31:00,80.8,73.0,29.73,NW,304,0.0,0.0,77,0.00,,,0.12,weatherlink.com 1.10,2013-06-26 21:31:00,
2013-06-26 17:46:00,80.7,72.0,29.73,NW,304,0.0,1.0,75,0.00,,,0.12,weatherlink.com 1.10,2013-06-26 21:46:00,
2013-06-26 18:01:00,81.5,73.0,29.72,NW,307,0.0,0.0,75,0.00,,,0.12,weatherlink.com 1.10,2013-06-26 22:01:00,
2013-06-26 18:31:00,79.4,74.0,29.73,NW,304,0.0,0.0,82,0.00,,,0.12,weatherlink.com 1.10,2013-06-26 22:31:00,
2013-06-26 18:46:00,78.9,73.0,29.73,NE,55,0.0,0.0,81,0.00,,,0.12,weatherlink.com 1.10,2013-06-26 22:46:00,
2013-06-26 19:01:00,78.6,73.0,29.73,NE,56,0.0,0.0,82,0.00,,,0.12,weatherlink.com 1.10,2013-06-26 23:01:00,
2013-06-26 19:16:00,78.1,73.0,29.73,NE,56,0.0,0.0,83,0.00,,,0.12,weatherlink.com 1.10,2013-06-26 23:16:00,
2013-06-26 19:31:00,77.2,72.0,29.73,NE,55,0.0,0.0,85,0.00,,,0.12,weatherlink.com 1.10,2013-06-26 23:31:00,
2013-06-26 19:46:00,76.5,72.0,29.73,ENE,75,0.0,0.0,87,0.00,,,0.12,weatherlink.com 1.10,2013-06-26 23:46:00,
2013-06-26 20:01:00,75.7,72.0,29.73,ENE,75,0.0,0.0,89,0.00,,,0.12,weatherlink.com 1.10,2013-06-27 00:01:00,
2013-06-26 20:16:00,74.5,71.0,29.73,ENE,75,0.0,0.0,89,0.00,,,0.12,weatherlink.com 1.10,2013-06-27 00:16:00,
2013-06-26 20:31:00,73.4,70.0,29.74,ENE,75,0.0,0.0,90,0.00,,,0.12,weatherlink.com 1.10,2013-06-27 00:31:00,
2013-06-26 20:46:00,72.3,70.0,29.73,ENE,75,0.0,0.0,91,0.00,,,0.12,weatherlink.com 1.10,2013-06-27 00:46:00,
2013-06-26 21:01:00,71.1,69.0,29.73,ENE,75,0.0,0.0,93,0.00,,,0.12,weatherlink.com 1.10,2013-06-27 01:01:00,
2013-06-26 21:16:00,70.2,69.0,29.74,ENE,75,0.0,0.0,94,0.00,,,0.12,weatherlink.com 1.10,2013-06-27 01:16:00,
2013-06-26 21:31:00,69.6,68.0,29.75,ENE,75,0.0,0.0,95,0.00,,,0.12,weatherlink.com 1.10,2013-06-27 01:31:00,
2013-06-26 21:46:00,69.0,68.0,29.76,ENE,75,0.0,0.0,96,0.00,,,0.12,weatherlink.com 1.10,2013-06-27 01:46:00,
2013-06-26 22:01:00,68.7,68.0,29.76,ENE,75,0.0,0.0,97,0.00,,,0.12,weatherlink.com 1.10,2013-06-27 02:01:00,
2013-06-26 22:16:00,68.3,68.0,29.75,ENE,75,0.0,0.0,97,0.00,,,0.12,weatherlink.com 1.10,2013-06-27 02:16:00,
2013-06-26 22:31:00,67.9,67.0,29.75,ENE,75,0.0,0.0,98,0.00,,,0.12,weatherlink.com 1.10,2013-06-27 02:31:00,
2013-06-26 22:47:00,67.5,67.0,29.75,ENE,75,0.0,0.0,98,0.00,,,0.12,weatherlink.com 1.10,2013-06-27 02:47:00,
2013-06-26 23:02:00,67.2,67.0,29.75,ENE,75,0.0,0.0,98,0.00,,,0.12,weatherlink.com 1.10,2013-06-27 03:02:00,
2013-06-26 23:17:00,67.2,67.0,29.75,ENE,75,0.0,0.0,99,0.00,,,0.12,weatherlink.com 1.10,2013-06-27 03:17:00,
2013-06-26 23:32:00,66.9,67.0,29.75,ENE,75,0.0,0.0,99,0.00,,,0.12,weatherlink.com 1.10,2013-06-27 03:32:00,
2013-06-26 23:47:00,66.6,66.0,29.76,ENE,75,0.0,0.0,99,0.00,,,0.12,weatherlink.com 1.10,2013-06-27 03:47:00,